STARLINK-32624, 61926

Orbit data source: Space-Track

STARLINK-32624, 61926 is a payload satellite owned by SpaceX/Seattle (US) in LEO that was launched on Mon, 11 Nov 2024 UTC via an FALCON 9 launch vehicle from the Air Force Eastern Test Range (AFETR). Payload-class satellites include a variety of spacecraft equipped with specific instruments for various scientific and technological missions. These include communications satellites like Starlink; space stations such as the ISS; scientific satellites like the Hubble; Earth observation satellites from companies like Planet Labs, Umbra, and HawkEye 360; GPS; miniature CubeSats for education and research; and military/defense satellites.

Loading next visibility...
Identifier
61926, 2024-207Q
Orbit
LEO
Country
Flag of USUS
Related business
Manufacturer
SpaceX/Seattle
Mission
Operational Commercial Communications
Bus & Motor
STARLINK V2M, Unknown motor
Mass
730 kg wet, ~700 kg dry
Launch date (UTC)
2024-11-11 (10 months ago)
Launch vehicle
FALCON 9
Launch site
Air Force Eastern Test Range (AFETR)
Object type
Payload
Rocket body
Debris
Shape & HBR
Box + 2 Pan, 14.5 m
Radar Cross Section
36.964 m², Large (>1 m²)

Expand to show TLE details & history
Last TLE update: 1 day ago

TLE from 1 day ago
0 STARLINK-32624
1 61926U 24207Q   25261.10806893  .00024783  00000-0  90655-3 0  9992
2 61926  42.9993 175.8992 0001311 280.2285  79.8419 15.27599593 48337
Epoch: 2025-09-18T02:35Z
TLE epoch observation values (Epoch: 2025-09-18T02:35:37.155Z)
Latitude
-0.00001°
Longitude
139.71998°
Altitude
482.607 km
Speed
7.626 km/s
True Right ascension
11h 43m 35s
True Declination
0° 00' 00"
Sunlit
Object was in daylight at epoch
Visualization orbit readout
Latitude
Unknown
Longitude
Unknown
Altitude
Unknown
Speed
Unknown
Apparent Right ascension
Unknown
Apparent Declination
Unknown
Sunlit
N/A
Visualization observer readout
Local Sidereal Time
00:30:27
Azimuth
Unknown
Elevation
Unknown
Doppler factor
Unknown
Orbital elements
Apogee altitude
485.835 km
Perigee altitude
484.036 km
Semi-major axis
6,863.073 km
Eccentricity
0.00013
Inclination
42.9993°
RAAN
175.8992°
Arg. of periapsis
280.2285°
True anomaly
79.85669°
Mean anomaly
79.8419°
Eccentric anomaly
79.84929°
Mean motion
3.81738 °/min
Orbital period
94.31 mins
BSTAR
0.00090655
Loading maneuver chart data...
Computing Atmospheric mass density...
Loading historical data...
Loading historical data...
Loading historical data...
Loading historical data...
Loading historical data...
Loading historical data...
Loading historical data...

Documentation

Showing up to 5 results
|